Location: Brompton
(51.4000°N, 0.5333°E)
Time: 11:58:34
(UTC+00:00)

Cosmos 1898 Rocket - Pass Details

Date: 04 October 2021
Orbit: 752 x 784 km, 74.0° (Epoch: 17 October)

Event Time Altitude Azimuth Distance (km) Brightness Sun altitude
Rises 19:10:22 0° 203° (SSW) 3,210 6.8 -16.6°
Reaches altitude 10° 19:12:43 10° 203° (SSW) 2,294 6.1 -17.0°
Maximum altitude 19:17:56 90° 312° (NW) 776 3.5 -17.8°
Drops below altitude 10° 19:23:15 10° 25° (NNE) 2,331 5.9 -18.6°
Sets 19:25:39 0° 26° (NNE) 3,267 6.7 -18.9°
